Find Starlink 31724

NORAD ID: 59554 Int'l Des: 2024-074 Owner: SPXS Country: US Constellation: starlink operational
LEOCIRCULAR

当前视图

正在加载3D地球...

About Starlink 31724

Starlink 31724 (NORAD 59554) is a starlink constellation satellite (v2 mini) launched Apr 18, 2024 by SPXS of US. It operates in LEO, CIRCULAR orbit with a mass of 730.00 kg.

即将过境

Passes for default location (London). Set your location on the main map for personalized predictions.

高度历史

Loading altitude history...

两行轨道根数

1 59554U 24074W 26262.16396928 .00000596 00000-0 31188-4 0 9992
2 59554 43.0026 294.8506 0001301 260.4083 99.6622 15.27580188136017
Epoch: Sep 19, 2026 • Age: 48 hours

当前状态

高度 493.2 km
远地点 / 近地点 N/A
速度 7.62 km/s
星下点 -37.29°S, 96.72°E
发射日期 Apr 18, 2024
运行时间 2.4 years
类型 internet

技术详情

分类 Payload
质量 730.00 kg
干质量 700.00 kg
长度 0.30 m
跨度 29.00 m
形状 ? Box + pan
制造商 SPXS
平台类型 Starlink V2M
阶段状态 In Orbit
所有者/国家 SPXS/US

Most Searched